Location: Newark
(52.4787°S, 179.0532°W)
Time: 16:25:20
(UTC+00:00)

Transit 2A Rocket - Pass Details

Date: 22 November 2019
Orbit: 594 x 909 km, 66.7° (Epoch: 11 December)

Event Time Altitude Azimuth Distance (km) Brightness Sun altitude
Rises 04:54:29 0° 220° (SW) 3,573 9.1 23.0°
Reaches altitude 10° 04:57:03 10° 220° (SW) 2,627 8.5 22.6°
Maximum altitude 05:03:14 89° 134° (SE) 911 5.8 21.6°
Drops below altitude 10° 05:09:09 10° 38° (NE) 2,507 7.3 20.8°
Sets 05:11:32 0° 37° (NE) 3,400 8.0 20.4°
